Location: Peterborough
(44.3091°N, 78.3197°W)
Time: 17:53:59
(UTC-04:00)

Transit 4A - Pass Details

Date: 23 March 2023
Orbit: 864 x 980 km, 66.8° (Epoch: 04 June)

Event Time Altitude Azimuth Distance (km) Brightness Sun altitude
Rises 08:28:36 0° 220° (SW) 3,431 10.6 12.9°
Reaches altitude 10° 08:31:04 10° 224° (SW) 2,501 9.9 13.4°
Maximum altitude 08:36:48 63° 305° (NW) 969 8.0 14.4°
Drops below altitude 10° 08:42:39 10° 27° (NNE) 2,561 10.4 15.4°
Sets 08:45:14 0° 31° (NNE) 3,520 11.1 15.8°
